#timestamp,LO_Frequency,Hit,StdDev 
1621328415.1,286046988.1,N
1621328416.0,286046988.1,N
1621328435.8,286046985.0,N
1621328455.6,286046983.2,N
1621328475.5,286046986.5,N
1621328495.3,286046987.6,N
1621328515.2,286046991.1,N
1621328535.9,286046992.9,N
1621328555.7,286046991.8,N
1621328575.6,286046993.9,N
1621328595.4,286046998.8,N
1621328615.2,286046997.6,N
1621328635.1,286046994.6,N
1621328636.0,286046994.6,N
1621328655.8,286046993.8,N
1621328675.7,286046991.9,N
1621328695.5,286046990.0,N
1621328715.3,286046986.2,Y
1621328735.2,286046990.8,P
1621328755.0,286046987.1,P
1621328755.9,286046987.1,P
1621328775.8,286046985.3,Y
1621328795.6,286046998.8,P
1621328815.4,286047007.3,N
1621328835.3,286047007.4,N
1621328855.1,286047005.0,N
1621328875.8,286047006.7,N
1621328895.7,286047014.7,N
1621328915.5,286047022.0,N
1621328935.4,286047021.2,N
1621328955.2,286047017.8,N
1621328975.0,286047017.2,N
1621328975.9,286047017.2,N
1621328995.8,286047013.5,N
1621329015.7,286047016.4,N
1621329035.5,286047017.5,N
1621329055.3,286047015.7,N
1621329075.2,286047012.6,N
1621329095.0,286047014.9,N
1621329095.9,286047014.9,N
1621329115.8,286047016.9,N
1621329135.6,286047021.4,N
1621329155.5,286047021.4,N
1621329175.3,286047021.0,N
1621329195.1,286047019.8,N
1621329215.9,286047017.6,N
1621329235.7,286047020.8,N
1621329255.5,286047016.5,N
1621329275.4,286047013.0,N
1621329295.2,286047010.0,N
1621329315.1,286047005.8,N
1621329316.0,286047005.8,N
1621329335.8,286047002.8,N
1621329355.6,286046999.7,N
1621329375.5,286046998.5,N
1621329395.3,286046998.0,N
1621329415.2,286046995.6,N
1621329435.9,286046996.3,N
1621329455.7,286046992.3,N
1621329475.6,286046989.0,N
1621329495.4,286046988.5,N
1621329515.3,286046988.5,N
1621329535.1,286046988.5,N
1621329536.0,286046988.5,N
1621329555.8,286046991.1,N
1621329575.7,286046992.3,N
1621329595.5,286046994.9,N
1621329615.3,286046993.9,N
1621329635.2,286046994.4,N
1621329655.0,286046989.4,N
1621329655.9,286046989.4,N
1621329675.8,286046988.2,N
1621329695.6,286046989.8,N
1621329715.4,286046988.2,N
1621329735.3,286046986.6,N
1621329755.1,286046984.4,N
1621329775.9,286046987.9,N
1621329795.7,286046982.7,N
1621329815.5,286046979.5,N
1621329835.4,286046978.6,Y
1621329855.2,286046983.3,P
1621329875.0,286046980.1,P
1621329876.0,286046980.1,P
1621329895.8,286046979.7,Y
1621329915.6,286047001.0,P
1621329935.5,286047002.8,N
1621329955.3,286046999.7,N
1621329975.1,286046999.0,N
1621329995.9,286046997.3,N
1621330015.7,286046995.7,N
1621330035.6,286046991.8,N
1621330055.4,286046991.2,N
1621330075.2,286046983.8,N
1621330095.1,286046982.9,N
1621330096.0,286046982.9,N
1621330115.8,286046978.1,Y
1621330135.7,286046981.5,P
1621330155.5,286046979.1,P
1621330175.3,286046977.6,P
1621330195.2,286046974.4,Y
1621330215.0,286046991.2,P
1621330215.9,286046991.2,N
1621330235.8,286046985.4,P
1621330255.6,286046985.8,Y
1621330275.5,286047000.0,P
1621330295.3,286047001.5,N
1621330315.1,286047001.1,N
1621330335.9,286046996.7,N
1621330355.7,286046999.3,N
1621330375.6,286047004.1,N
1621330395.4,286047010.2,N
1621330415.2,286047011.9,N
1621330435.1,286047015.6,N
1621330436.0,286047015.6,N
1621330455.8,286047012.4,N
1621330475.6,286047008.6,N
1621330495.5,286047004.4,N
1621330515.3,286047000.3,N
1621330535.2,286046998.5,N
1621330555.9,286046997.5,N
1621330575.7,286046997.7,N
1621330595.6,286046994.2,N
1621330615.4,286046997.7,N
1621330635.2,286046992.2,N
1621330655.1,286046990.7,N
1621330656.0,286046990.7,N
1621330675.8,286046987.3,N
1621330695.7,286046987.7,N
1621330715.5,286046989.9,N
1621330735.3,286046987.2,N
1621330755.2,286046987.1,N
1621330775.0,286046988.9,N
1621330775.9,286046988.9,N
1621330795.8,286046983.9,N
1621330815.6,286046983.5,N
1621330835.4,286046980.9,N
1621330855.3,286046981.1,N
1621330875.1,286046979.9,N
1621330895.8,286046977.0,N
1621330915.7,286046972.6,N
1621330935.5,286046975.6,N
1621330955.4,286046970.3,N
1621330975.2,286046970.0,N
1621330995.0,286046974.8,N
1621330995.9,286046974.8,N
1621331015.8,286046986.3,N
1621331035.6,286046970.2,Y
1621331055.5,286046980.5,P
1621331075.3,286046981.3,P
1621331095.1,286046984.5,P
1621331115.9,286046983.7,Y
1621331135.7,286046998.3,P
1621331155.5,286046998.9,N
1621331175.4,286046996.2,N
1621331195.2,286046995.7,N
1621331215.1,286046993.9,N
1621331216.0,286046993.9,N
1621331235.8,286046992.6,N
1621331255.6,286046991.5,N
1621331275.5,286046992.9,N
1621331295.3,286046989.0,N
1621331315.1,286046987.1,Y
1621331335.9,286046990.5,P
1621331355.7,286046990.7,P
1621331375.6,286046991.8,P
1621331395.4,286046990.7,Y
1621331415.2,286047002.8,P
1621331435.1,286047001.6,N
1621331436.0,286047001.6,N
1621331455.8,286047005.8,N
1621331475.7,286046999.9,N
1621331495.5,286047001.0,N
1621331515.3,286046999.1,N
1621331535.2,286046998.9,N
1621331555.0,286046995.2,N
1621331555.9,286046995.2,N
1621331575.7,286046995.6,N
1621331595.6,286046994.4,N
1621331615.4,286046993.6,N
1621331635.3,286046993.7,N
1621331655.1,286046994.0,N
1621331656.0,286046994.0,N
1621331675.8,286046997.0,N
1621331695.7,286046996.9,N
1621331715.5,286046997.2,N
1621331735.4,286046998.8,N
1621331755.2,286046997.2,N
1621331775.0,286046993.3,N
1621331775.9,286046993.3,N
1621331795.8,286046993.5,N
1621331815.6,286046994.5,N
1621331835.4,286046993.5,N
1621331855.3,286046992.1,N
1621331875.1,286046988.5,Y
1621331895.9,286046994.1,P
1621331915.7,286046996.0,P
1621331935.5,286046993.8,P
1621331955.4,286046993.8,Y
1621331975.2,286046999.0,P
1621331995.0,286046998.9,N
1621331996.0,286046998.9,N
